Location: Joplin, MO
(37.0842°N, 94.5133°W)
Time: 21:47:43
(UTC+02:00)

Courier 1B Rocket - Pass Details

Date: 06 April 2023
Orbit: 920 x 1202 km, 28.2° (Epoch: 05 June)

Event Time Altitude Azimuth Distance (km) Brightness Sun altitude
Rises 03:04:07 0° 264° (W) 4,067 10.0 -4.8°
Reaches altitude 10° 03:07:14 10° 256° (WSW) 3,079 8.8 -5.4°
Maximum altitude 03:14:03 37° 193° (SSW) 1,691 6.3 -6.7°
Drops below altitude 10° 03:20:31 10° 129° (SE) 2,908 6.9 -8.0°
Enters shadow 03:21:20 - 126° (SE) 3,157 7.1 -8.1°
Sets 03:23:23 0° 120° (ESE) 3,817 - -8.5°
